Location: Ehingen
(48.2869°N, 9.7112°E)
Time: 17:52:54
(UTC+02:00)

ISS - Visible Passes

Search period start: 26 July 2021 00:00
Search period end: 05 August 2021 00:00
Orbit: 419 x 421 km, 51.6° (Epoch: 26 July)

Date Brightness Start Highest point End Pass type
(mag) Time Alt. Az. Time Alt. Az. Time Alt. Az.
26 Jul -0.9 00:45:51 10° W 00:45:55 10° W 00:45:55 10° W visible
26 Jul -3.6 22:21:02 10° WNW 22:24:26 76° NNE 22:27:10 15° ESE visible
26 Jul -2.0 23:58:09 10° W 00:00:07 23° WSW 00:00:07 23° WSW visible
27 Jul -3.1 23:10:38 10° WNW 23:13:49 38° SSW 23:14:21 35° S visible
28 Jul -3.5 22:23:14 10° WNW 22:26:34 57° SSW 22:28:38 21° SE visible
29 Jul -3.7 21:35:53 10° WNW 21:39:16 81° SSW 21:42:39 10° ESE visible
29 Jul -1.8 23:13:23 10° W 23:15:41 17° SW 23:15:54 17° SW visible
30 Jul -2.2 22:25:40 10° W 22:28:31 25° SW 22:30:16 17° S visible
31 Jul -2.8 21:38:08 10° WNW 21:41:18 38° SW 21:44:28 10° SE visible
01 Aug -1.1 22:29:19 10° WSW 22:30:16 11° SW 22:31:13 10° SSW visible
02 Aug -1.5 21:40:53 10° W 21:43:09 17° SW 21:45:25 10° S visible
